This demonstration page uses our WeatherBlox Daily Observations layout. Learn more.

Left ArrowRight Arrow

30.21309, -93.2044

Hourly Observations for May 17, 2015

Temp ( °F °C ) Dew Point ( °F °C ) Humidity (%) Winds ( mph kmh ) Pressure ( in mb ) Visibility ( mi km ) Precip ( " mm )
12:15 am 00:15 Cloudy 78 25.5 75 24 91 91 SSE 8 13 30.00 1016 7 11 0.00 0.00
12:35 am 00:35 Cloudy 78 25.5 75 24 91 91 SSE 7 11 30.00 1016 7 11 0.00 0.00
12:55 am 00:55 Cloudy 78 25.5 75 23.9 91 91 SSE 10 17 30.00 1016 7 11 0.00 0.00
1:15 am 01:15 Cloudy 78 25.3 75 23.8 91 91 SSE 10 17 30.00 1016 7 11 0.00 0.00
1:35 am 01:35 Cloudy 77 25.2 75 23.9 93 93 SSE 10 17 30.00 1016 7 11 0.00 0.00
1:55 am 01:55 Cloudy 77 25 75 23.9 94 94 SSE 8 13 30.00 1016 7 11 0.00 0.00
2:15 am 02:15 Cloudy 77 25.1 75 24 94 94 SSE 12 19 29.97 1015 7 11 0.00 0.00
2:35 am 02:35 Cloudy 78 25.5 75 24 91 91 SSE 8 13 29.97 1015 7 11 0.00 0.00
2:55 am 02:55 Cloudy 78 25.5 75 24 91 91 SSE 7 11 29.97 1015 7 11 0.00 0.00
3:15 am 03:15 Cloudy 78 25.3 75 23.8 91 91 SSE 10 17 29.97 1015 7 11 0.00 0.00
3:35 am 03:35 Cloudy 77 25.1 75 23.8 93 93 SSE 10 17 29.97 1015 7 11 0.00 0.00
3:55 am 03:55 Cloudy 77 25.2 75 23.8 92 92 SSE 10 17 29.97 1015 7 11 0.00 0.00
4:15 am 04:15 Cloudy 77 25 75 23.8 93 93 SSE 12 19 29.97 1015 7 11 0.00 0.00
4:35 am 04:35 Cloudy 77 25 75 23.7 93 93 SSE 9 15 29.97 1015 7 11 0.00 0.00
4:55 am 04:55 Cloudy 77 25.1 75 23.8 93 93 SSE 12 19 29.97 1015 7 11 0.00 0.00
5:15 am 05:15 Cloudy 77 25 75 23.7 93 93 SSE 8 13 29.97 1015 7 11 0.00 0.00
6:00 am 06:00 Cloudy 77 25 75 24 94 94 SSE 12 19 29.97 1015 7 11 0.00 0.00
6:50 am 06:50 Cloudy with Mist and Fog 77 25 75 24 94 94 SSE 8 13 30.00 1016 5 8 0.00 0.00
7:50 am 07:50 Cloudy 79 26 75 24 89 89 SSE 13 20 30.00 1016 7 11 0.00 0.00
8:50 am 08:50 Cloudy 81 27 73 23 79 79 SSE 16 26 30.03 1017 10 16 0.00 0.00
9:50 am 09:50 Mostly Cloudy 82 28 73 23 74 74 SSE 20 31 30.06 1018 10 16 0.00 0.00
10:50 am 10:50 Mostly Cloudy 84 29 73 23 70 70 S 20 31 30.06 1018 10 16 0.00 0.00
11:50 am 11:50 Mostly Cloudy 84 29 73 23 70 70 SSE 15 24 30.06 1018 10 16 0.00 0.00
12:50 pm 12:50 Mostly Cloudy 86 30 73 23 66 66 S 14 22 30.09 1019 10 16 0.00 0.00
1:50 pm 13:50 Mostly Cloudy 86 30 73 23 66 66 S 15 24 30.06 1018 10 16 0.00 0.00
5:50 pm 17:50 Cloudy 79 26 75 24 89 89 S 6 9 30.06 1018 7 11 0.00 0.00
6:50 pm 18:50 Cloudy with Showers 79 26 75 24 89 89 SE 9 15 30.03 1017 5 8 0.00 0.00
7:50 pm 19:50 Mostly Cloudy 79 26 75 24 89 89 SE 15 24 30.03 1017 10 16 0.00 0.00
8:50 pm 20:50 Cloudy 79 26 75 24 89 89 SE 10 17 30.06 1018 10 16 0.00 0.00
9:50 pm 21:50 Cloudy 79 26 75 24 89 89 SSE 14 22 30.06 1018 10 16 0.00 0.00
10:15 pm 22:15 Cloudy 78 25.3 76 24.2 94 94 SSE 13 20 30.06 1018 7 11 0.00 0.00
10:35 pm 22:35 Cloudy 78 25.3 76 24.2 94 94 SSE 13 20 30.06 1018 7 11 0.00 0.00
10:55 pm 22:55 Cloudy 78 25.5 75 24.1 92 92 SSE 12 19 30.09 1019 7 11 0.00 0.00
11:15 pm 23:15 Cloudy 78 25.4 75 24.1 93 93 SSE 13 20 30.09 1019 7 11 0.00 0.00
11:35 pm 23:35 Mostly Cloudy 77 25.2 75 24 93 93 SSE 13 20 30.06 1018 7 11 0.00 0.00
11:55 pm 23:55 Partly Cloudy 77 25.2 75 24 93 93 SSE 13 20 30.06 1018 7 11 0.00 0.00

Powered by AerisWeather